Time,TemperatureF,DewpointF,PressureIn,WindDirection,WindDirectionDegrees,WindSpeedMPH,WindSpeedGustMPH,Humidity,HourlyPrecipIn,Conditions,Clouds,dailyrainin,SolarRadiationWatts/m^2,SoftwareType,DateUTC
2013-08-04 00:02:00,61.0,53.0,30.07,NW,320,4.0,12.0,76,0.00,,,0.00,0.000000,,2013-08-04 04:02:00,
2013-08-04 00:12:00,60.0,52.0,30.07,NNW,346,5.0,12.0,76,0.00,,,0.00,0.000000,,2013-08-04 04:12:00,
2013-08-04 00:22:00,60.0,52.0,30.07,NNW,346,5.0,12.0,76,0.00,,,0.00,0.000000,,2013-08-04 04:22:00,
2013-08-04 00:32:00,60.0,52.0,30.07,NNW,330,12.0,14.0,76,0.00,,,0.00,0.000000,,2013-08-04 04:32:00,
2013-08-04 00:42:00,60.0,52.0,30.07,NNW,330,12.0,14.0,76,0.00,,,0.00,0.000000,,2013-08-04 04:42:00,
2013-08-04 00:52:00,60.0,52.0,30.07,NNW,330,12.0,14.0,76,0.00,,,0.00,0.000000,,2013-08-04 04:52:00,
2013-08-04 01:02:00,60.0,53.0,30.08,NNW,330,6.0,13.0,79,0.00,,,0.00,0.000000,,2013-08-04 05:02:00,
2013-08-04 01:12:00,60.0,53.0,30.08,NW,324,6.0,14.0,78,0.00,,,0.00,0.000000,,2013-08-04 05:12:00,
2013-08-04 01:22:00,60.0,53.0,30.08,WNW,291,9.0,14.0,79,0.00,,,0.00,0.000000,,2013-08-04 05:22:00,
2013-08-04 01:32:00,60.0,53.0,30.08,NW,317,11.0,16.0,79,0.00,,,0.00,0.000000,,2013-08-04 05:32:00,
2013-08-04 01:42:00,60.0,53.0,30.08,NW,305,5.0,16.0,79,0.00,,,0.00,0.000000,,2013-08-04 05:42:00,
2013-08-04 01:52:00,59.0,53.0,30.08,NNW,329,2.0,12.0,80,0.00,,,0.00,0.000000,,2013-08-04 05:52:00,
2013-08-04 02:02:00,59.0,53.0,30.08,NNW,335,2.0,11.0,80,0.00,,,0.00,0.000000,,2013-08-04 06:02:00,
2013-08-04 02:12:00,60.0,54.0,30.09,NW,321,5.0,12.0,80,0.00,,,0.00,0.000000,,2013-08-04 06:12:00,
2013-08-04 02:22:00,59.0,53.0,30.08,NNW,340,0.0,12.0,81,0.00,,,0.00,0.000000,,2013-08-04 06:22:00,
2013-08-04 02:32:00,59.0,54.0,30.08,NW,314,7.0,12.0,82,0.00,,,0.00,0.000000,,2013-08-04 06:32:00,
2013-08-04 02:43:00,59.0,54.0,30.08,NW,322,9.0,13.0,82,0.00,,,0.00,0.000000,,2013-08-04 06:43:00,
2013-08-04 02:52:00,59.0,54.0,30.09,NW,313,6.0,15.0,82,0.00,,,0.00,0.000000,,2013-08-04 06:52:00,
2013-08-04 03:02:00,59.0,54.0,30.09,WNW,303,7.0,12.0,83,0.00,,,0.00,0.000000,,2013-08-04 07:02:00,
2013-08-04 03:12:00,59.0,54.0,30.09,NW,313,8.0,13.0,84,0.00,,,0.00,0.000000,,2013-08-04 07:12:00,
2013-08-04 03:22:00,59.0,54.0,30.10,NNW,334,6.0,14.0,84,0.00,,,0.00,0.000000,,2013-08-04 07:22:00,
2013-08-04 03:32:00,58.0,54.0,30.10,NW,326,1.0,12.0,85,0.00,,,0.00,0.000000,,2013-08-04 07:32:00,
2013-08-04 03:43:00,58.0,54.0,30.10,NW,324,4.0,10.0,86,0.00,,,0.00,0.000000,,2013-08-04 07:43:00,
2013-08-04 03:52:00,58.0,54.0,30.10,NNW,337,4.0,10.0,87,0.00,,,0.00,0.000000,,2013-08-04 07:52:00,
2013-08-04 04:02:00,58.0,54.0,30.10,NW,309,3.0,10.0,87,0.00,,,0.00,0.000000,,2013-08-04 08:02:00,
2013-08-04 04:12:00,58.0,54.0,30.11,NW,323,1.0,10.0,87,0.00,,,0.00,0.000000,,2013-08-04 08:12:00,
2013-08-04 04:23:00,58.0,54.0,30.11,NNW,327,0.0,4.0,88,0.00,,,0.00,0.000000,,2013-08-04 08:23:00,
2013-08-04 04:33:00,58.0,54.0,30.11,NNW,340,0.0,0.0,88,0.00,,,0.00,0.000000,,2013-08-04 08:33:00,
2013-08-04 04:43:00,58.0,55.0,30.11,NW,304,0.0,10.0,89,0.00,,,0.00,0.000000,,2013-08-04 08:43:00,
2013-08-04 04:53:00,58.0,55.0,30.11,NW,306,0.0,0.0,89,0.00,,,0.00,0.000000,,2013-08-04 08:53:00,
2013-08-04 05:02:00,58.0,55.0,30.11,NNW,327,0.0,0.0,90,0.00,,,0.00,0.000000,,2013-08-04 09:02:00,
2013-08-04 05:12:00,58.0,55.0,30.11,NNW,327,0.0,0.0,90,0.00,,,0.00,0.000000,,2013-08-04 09:12:00,
2013-08-04 05:22:00,58.0,55.0,30.11,NNW,327,0.0,0.0,90,0.00,,,0.00,0.000000,,2013-08-04 09:22:00,
2013-08-04 05:32:00,58.0,55.0,30.11,NNW,327,0.0,0.0,91,0.00,,,0.00,0.000000,,2013-08-04 09:32:00,
2013-08-04 05:43:00,58.0,55.0,30.11,NNW,327,0.0,0.0,91,0.00,,,0.00,0.000000,,2013-08-04 09:43:00,
2013-08-04 05:52:00,58.0,55.0,30.11,NNW,327,0.0,0.0,91,0.00,,,0.00,0.000000,,2013-08-04 09:52:00,
2013-08-04 06:02:00,58.0,55.0,30.11,NNW,327,0.0,0.0,90,0.00,,,0.00,0.000000,,2013-08-04 10:02:00,
2013-08-04 06:12:00,58.0,55.0,30.12,NNW,327,0.0,0.0,90,0.00,,,0.00,0.000000,,2013-08-04 10:12:00,
2013-08-04 06:22:00,58.0,55.0,30.12,NW,316,0.0,2.0,91,0.00,,,0.00,0.000000,,2013-08-04 10:22:00,
2013-08-04 06:32:00,57.0,54.0,30.12,NNW,344,0.0,4.0,91,0.00,,,0.00,0.000000,,2013-08-04 10:32:00,
2013-08-04 06:43:00,57.0,54.0,30.12,NNW,344,0.0,0.0,91,0.00,,,0.00,5.000000,,2013-08-04 10:43:00,
2013-08-04 06:53:00,56.0,53.0,30.13,North,350,0.0,0.0,91,0.00,,,0.00,9.000000,,2013-08-04 10:53:00,
2013-08-04 07:02:00,57.0,55.0,30.13,NW,319,0.0,3.0,92,0.00,,,0.00,12.000000,,2013-08-04 11:02:00,
2013-08-04 07:12:00,57.0,55.0,30.13,NW,323,0.0,0.0,92,0.00,,,0.00,19.000000,,2013-08-04 11:12:00,
2013-08-04 07:22:00,57.0,54.0,30.13,NW,323,0.0,0.0,91,0.00,,,0.00,25.000000,,2013-08-04 11:22:00,
2013-08-04 07:32:00,57.0,54.0,30.13,NNW,329,0.0,1.0,90,0.00,,,0.00,95.000000,,2013-08-04 11:32:00,
2013-08-04 07:42:00,58.0,55.0,30.14,North,355,5.0,9.0,90,0.00,,,0.00,139.000000,,2013-08-04 11:42:00,
2013-08-04 07:53:00,58.0,55.0,30.14,North,360,3.0,7.0,89,0.00,,,0.00,163.000000,,2013-08-04 11:53:00,
2013-08-04 08:02:00,59.0,55.0,30.14,NNW,344,2.0,9.0,88,0.00,,,0.00,195.000000,,2013-08-04 12:02:00,
2013-08-04 08:12:00,59.0,55.0,30.14,NNE,13,3.0,8.0,87,0.00,,,0.00,227.000000,,2013-08-04 12:12:00,
2013-08-04 08:22:00,59.0,54.0,30.15,NNE,18,9.0,13.0,84,0.00,,,0.00,255.000000,,2013-08-04 12:22:00,
2013-08-04 08:33:00,59.0,54.0,30.15,North,355,9.0,12.0,84,0.00,,,0.00,288.000000,,2013-08-04 12:33:00,
2013-08-04 08:43:00,60.0,54.0,30.16,North,11,6.0,10.0,82,0.00,,,0.00,318.000000,,2013-08-04 12:43:00,
2013-08-04 08:53:00,60.0,54.0,30.15,North,360,6.0,9.0,81,0.00,,,0.00,353.000000,,2013-08-04 12:53:00,
2013-08-04 09:02:00,60.0,53.0,30.15,NNE,22,6.0,10.0,77,0.00,,,0.00,381.000000,,2013-08-04 13:02:00,
2013-08-04 09:12:00,61.0,54.0,30.16,North,360,0.0,10.0,78,0.00,,,0.00,411.000000,,2013-08-04 13:12:00,
2013-08-04 09:22:00,62.0,53.0,30.16,NE,51,4.0,7.0,73,0.00,,,0.00,448.000000,,2013-08-04 13:22:00,
2013-08-04 09:32:00,62.0,53.0,30.16,NE,40,0.0,10.0,72,0.00,,,0.00,475.000000,,2013-08-04 13:32:00,
2013-08-04 09:43:00,63.0,53.0,30.16,NNE,15,2.0,12.0,71,0.00,,,0.00,508.000000,,2013-08-04 13:43:00,
2013-08-04 09:52:00,63.0,52.0,30.16,NNE,23,0.0,12.0,68,0.00,,,0.00,541.000000,,2013-08-04 13:52:00,
2013-08-04 10:02:00,63.0,51.0,30.16,NNE,20,2.0,11.0,66,0.00,,,0.00,570.000000,,2013-08-04 14:02:00,
2013-08-04 10:12:00,64.0,53.0,30.16,NW,313,1.0,11.0,68,0.00,,,0.00,599.000000,,2013-08-04 14:12:00,
2013-08-04 10:22:00,63.0,52.0,30.16,NNW,342,7.0,11.0,68,0.00,,,0.00,628.000000,,2013-08-04 14:22:00,
2013-08-04 10:32:00,63.0,53.0,30.16,NNW,332,2.0,12.0,70,0.00,,,0.00,654.000000,,2013-08-04 14:32:00,
2013-08-04 10:43:00,63.0,53.0,30.17,North,360,1.0,11.0,69,0.00,,,0.00,682.000000,,2013-08-04 14:43:00,
2013-08-04 10:53:00,64.0,53.0,30.17,NNW,341,6.0,11.0,68,0.00,,,0.00,714.000000,,2013-08-04 14:53:00,
2013-08-04 11:02:00,64.0,54.0,30.17,North,355,0.0,13.0,69,0.00,,,0.00,742.000000,,2013-08-04 15:02:00,
2013-08-04 11:12:00,65.0,53.0,30.18,WNW,296,3.0,11.0,65,0.00,,,0.00,798.000000,,2013-08-04 15:12:00,
2013-08-04 11:22:00,65.0,52.0,30.18,NNW,336,3.0,10.0,62,0.00,,,0.00,800.000000,,2013-08-04 15:22:00,
2013-08-04 11:32:00,65.0,53.0,30.18,North,355,1.0,7.0,64,0.00,,,0.00,826.000000,,2013-08-04 15:32:00,
2013-08-04 11:43:00,66.0,52.0,30.18,NW,320,2.0,9.0,60,0.00,,,0.00,853.000000,,2013-08-04 15:43:00,
2013-08-04 11:53:00,66.0,52.0,30.19,NNW,333,0.0,7.0,61,0.00,,,0.00,969.000000,,2013-08-04 15:53:00,
2013-08-04 12:02:00,67.0,54.0,30.19,NNW,338,0.0,0.0,62,0.00,,,0.00,1009.000000,,2013-08-04 16:02:00,
2013-08-04 12:12:00,67.0,53.0,30.19,WNW,290,4.0,7.0,61,0.00,,,0.00,993.000000,,2013-08-04 16:12:00,
2013-08-04 12:22:00,65.0,53.0,30.19,WSW,248,8.0,14.0,65,0.00,,,0.00,288.000000,,2013-08-04 16:22:00,
2013-08-04 12:33:00,66.0,55.0,30.19,WSW,253,9.0,13.0,67,0.00,,,0.00,1005.000000,,2013-08-04 16:33:00,
2013-08-04 12:42:00,66.0,54.0,30.19,West,265,6.0,13.0,66,0.00,,,0.00,967.000000,,2013-08-04 16:42:00,
2013-08-04 12:53:00,66.0,55.0,30.18,West,276,9.0,15.0,67,0.00,,,0.00,965.000000,,2013-08-04 16:53:00,
2013-08-04 13:02:00,65.0,54.0,30.18,West,270,10.0,17.0,67,0.00,,,0.00,1102.000000,,2013-08-04 17:02:00,
2013-08-04 13:12:00,65.0,54.0,30.18,West,275,10.0,16.0,67,0.00,,,0.00,986.000000,,2013-08-04 17:12:00,
2013-08-04 13:22:00,65.0,53.0,30.18,WNW,296,11.0,15.0,66,0.00,,,0.00,1046.000000,,2013-08-04 17:22:00,
2013-08-04 13:32:00,66.0,53.0,30.18,West,268,7.0,14.0,63,0.00,,,0.00,1250.000000,,2013-08-04 17:32:00,
2013-08-04 13:43:00,65.0,54.0,30.18,West,267,5.0,13.0,67,0.00,,,0.00,431.000000,,2013-08-04 17:43:00,
2013-08-04 13:53:00,65.0,53.0,30.16,West,269,11.0,15.0,65,0.00,,,0.00,1234.000000,,2013-08-04 17:53:00,
2013-08-04 14:02:00,65.0,53.0,30.16,WSW,251,12.0,16.0,65,0.00,,,0.00,371.000000,,2013-08-04 18:02:00,
2013-08-04 14:12:00,65.0,54.0,30.16,West,264,13.0,18.0,68,0.00,,,0.00,1146.000000,,2013-08-04 18:12:00,
2013-08-04 14:23:00,66.0,55.0,30.16,West,274,10.0,17.0,67,0.00,,,0.00,1039.000000,,2013-08-04 18:23:00,
2013-08-04 14:33:00,66.0,53.0,30.16,West,275,10.0,17.0,63,0.00,,,0.00,1021.000000,,2013-08-04 18:33:00,
2013-08-04 14:43:00,66.0,53.0,30.16,West,267,12.0,17.0,64,0.00,,,0.00,860.000000,,2013-08-04 18:43:00,
2013-08-04 14:52:00,66.0,53.0,30.15,West,259,12.0,16.0,64,0.00,,,0.00,772.000000,,2013-08-04 18:52:00,
2013-08-04 15:02:00,66.0,53.0,30.15,NW,317,10.0,16.0,64,0.00,,,0.00,925.000000,,2013-08-04 19:02:00,
2013-08-04 15:12:00,66.0,54.0,30.16,WNW,294,13.0,19.0,65,0.00,,,0.00,940.000000,,2013-08-04 19:12:00,
2013-08-04 15:22:00,67.0,54.0,30.16,WNW,292,9.0,19.0,63,0.00,,,0.00,930.000000,,2013-08-04 19:22:00,
2013-08-04 15:33:00,66.0,54.0,30.16,WNW,291,13.0,19.0,65,0.00,,,0.00,977.000000,,2013-08-04 19:33:00,
2013-08-04 15:43:00,66.0,53.0,30.16,West,281,10.0,18.0,63,0.00,,,0.00,810.000000,,2013-08-04 19:43:00,
2013-08-04 15:52:00,65.0,52.0,30.16,WNW,293,12.0,16.0,63,0.00,,,0.00,942.000000,,2013-08-04 19:52:00,
2013-08-04 16:02:00,66.0,54.0,30.16,West,260,8.0,18.0,65,0.00,,,0.00,877.000000,,2013-08-04 20:02:00,
2013-08-04 16:12:00,67.0,54.0,30.16,WNW,290,10.0,16.0,62,0.00,,,0.00,851.000000,,2013-08-04 20:12:00,
2013-08-04 16:22:00,67.0,55.0,30.15,West,264,11.0,15.0,65,0.00,,,0.00,810.000000,,2013-08-04 20:22:00,
2013-08-04 16:33:00,67.0,55.0,30.15,WNW,286,9.0,17.0,65,0.00,,,0.00,758.000000,,2013-08-04 20:33:00,
2013-08-04 16:43:00,66.0,53.0,30.14,West,279,10.0,16.0,64,0.00,,,0.00,722.000000,,2013-08-04 20:43:00,
2013-08-04 16:53:00,66.0,53.0,30.14,WNW,288,11.0,16.0,64,0.00,,,0.00,715.000000,,2013-08-04 20:53:00,
2013-08-04 17:02:00,67.0,55.0,30.14,WNW,291,10.0,15.0,65,0.00,,,0.00,635.000000,,2013-08-04 21:02:00,
2013-08-04 17:12:00,66.0,53.0,30.14,West,277,10.0,15.0,63,0.00,,,0.00,689.000000,,2013-08-04 21:12:00,
2013-08-04 17:22:00,67.0,54.0,30.13,West,268,7.0,15.0,63,0.00,,,0.00,670.000000,,2013-08-04 21:22:00,
2013-08-04 17:32:00,66.0,51.0,30.13,WNW,295,8.0,17.0,59,0.00,,,0.00,633.000000,,2013-08-04 21:32:00,
2013-08-04 17:43:00,67.0,54.0,30.13,WNW,298,9.0,13.0,63,0.00,,,0.00,468.000000,,2013-08-04 21:43:00,
2013-08-04 17:53:00,67.0,53.0,30.13,West,269,4.0,12.0,60,0.00,,,0.00,557.000000,,2013-08-04 21:53:00,
2013-08-04 18:02:00,67.0,53.0,30.13,WNW,294,5.0,12.0,60,0.00,,,0.00,547.000000,,2013-08-04 22:02:00,
2013-08-04 18:12:00,67.0,54.0,30.13,WNW,294,3.0,12.0,63,0.00,,,0.00,522.000000,,2013-08-04 22:12:00,
2013-08-04 18:22:00,67.0,53.0,30.13,West,276,8.0,12.0,60,0.00,,,0.00,501.000000,,2013-08-04 22:22:00,
2013-08-04 18:32:00,67.0,53.0,30.13,WNW,297,7.0,12.0,61,0.00,,,0.00,420.000000,,2013-08-04 22:32:00,
2013-08-04 18:43:00,67.0,53.0,30.13,WNW,295,7.0,11.0,60,0.00,,,0.00,392.000000,,2013-08-04 22:43:00,
2013-08-04 18:53:00,67.0,52.0,30.13,West,272,3.0,11.0,59,0.00,,,0.00,455.000000,,2013-08-04 22:53:00,
2013-08-04 19:02:00,67.0,54.0,30.13,West,281,4.0,12.0,63,0.00,,,0.00,420.000000,,2013-08-04 23:02:00,
2013-08-04 19:12:00,66.0,53.0,30.13,WNW,284,4.0,13.0,63,0.00,,,0.00,380.000000,,2013-08-04 23:12:00,
2013-08-04 19:22:00,66.0,53.0,30.13,WNW,284,10.0,13.0,64,0.00,,,0.00,325.000000,,2013-08-04 23:22:00,
2013-08-04 19:32:00,66.0,53.0,30.13,WNW,282,1.0,13.0,62,0.00,,,0.00,111.000000,,2013-08-04 23:32:00,
2013-08-04 19:43:00,65.0,52.0,30.13,NW,308,7.0,11.0,63,0.00,,,0.00,74.000000,,2013-08-04 23:43:00,
2013-08-04 19:53:00,66.0,53.0,30.12,WNW,292,1.0,9.0,62,0.00,,,0.00,40.000000,,2013-08-04 23:53:00,
2013-08-04 20:02:00,65.0,52.0,30.12,West,278,9.0,12.0,62,0.00,,,0.00,49.000000,,2013-08-05 00:02:00,
2013-08-04 20:12:00,65.0,52.0,30.12,West,279,3.0,11.0,62,0.00,,,0.00,56.000000,,2013-08-05 00:12:00,
2013-08-04 20:22:00,66.0,53.0,30.12,West,268,6.0,10.0,62,0.00,,,0.00,142.000000,,2013-08-05 00:22:00,
2013-08-04 20:33:00,66.0,53.0,30.12,WNW,292,0.0,10.0,63,0.00,,,0.00,98.000000,,2013-08-05 00:33:00,
2013-08-04 20:42:00,66.0,53.0,30.11,West,275,0.0,6.0,62,0.00,,,0.00,63.000000,,2013-08-05 00:42:00,
2013-08-04 20:52:00,65.0,53.0,30.11,West,279,0.0,6.0,65,0.00,,,0.00,23.000000,,2013-08-05 00:52:00,
2013-08-04 21:02:00,64.0,52.0,30.11,West,272,1.0,5.0,66,0.00,,,0.00,14.000000,,2013-08-05 01:02:00,
2013-08-04 21:12:00,64.0,53.0,30.11,West,279,0.0,0.0,67,0.00,,,0.00,7.000000,,2013-08-05 01:12:00,
2013-08-04 21:22:00,63.0,52.0,30.11,West,279,0.0,0.0,68,0.00,,,0.00,0.000000,,2013-08-05 01:22:00,
2013-08-04 21:33:00,62.0,53.0,30.11,West,279,0.0,0.0,73,0.00,,,0.00,0.000000,,2013-08-05 01:33:00,
2013-08-04 21:42:00,61.0,53.0,30.11,West,279,0.0,0.0,76,0.00,,,0.00,0.000000,,2013-08-05 01:42:00,
2013-08-04 21:52:00,59.0,52.0,30.10,West,279,0.0,0.0,79,0.00,,,0.00,0.000000,,2013-08-05 01:52:00,
2013-08-04 22:02:00,58.0,52.0,30.10,West,279,0.0,0.0,81,0.00,,,0.00,0.000000,,2013-08-05 02:02:00,
2013-08-04 22:12:00,57.0,52.0,30.10,West,279,0.0,0.0,83,0.00,,,0.00,0.000000,,2013-08-05 02:12:00,
2013-08-04 22:22:00,56.0,52.0,30.11,West,279,0.0,0.0,85,0.00,,,0.00,0.000000,,2013-08-05 02:22:00,
2013-08-04 22:33:00,56.0,52.0,30.11,West,279,0.0,0.0,86,0.00,,,0.00,0.000000,,2013-08-05 02:33:00,
2013-08-04 22:43:00,55.0,51.0,30.10,West,279,0.0,0.0,87,0.00,,,0.00,0.000000,,2013-08-05 02:43:00,
2013-08-04 22:53:00,55.0,52.0,30.10,West,279,0.0,0.0,88,0.00,,,0.00,0.000000,,2013-08-05 02:53:00,
2013-08-04 23:02:00,54.0,51.0,30.10,West,279,0.0,0.0,89,0.00,,,0.00,0.000000,,2013-08-05 03:02:00,
2013-08-04 23:12:00,54.0,51.0,30.10,West,279,0.0,0.0,89,0.00,,,0.00,0.000000,,2013-08-05 03:12:00,
2013-08-04 23:22:00,54.0,51.0,30.10,West,279,0.0,0.0,90,0.00,,,0.00,0.000000,,2013-08-05 03:22:00,
2013-08-04 23:32:00,54.0,51.0,30.10,West,279,0.0,0.0,90,0.00,,,0.00,0.000000,,2013-08-05 03:32:00,
2013-08-04 23:42:00,53.0,50.0,30.10,West,279,0.0,0.0,90,0.00,,,0.00,0.000000,,2013-08-05 03:42:00,
2013-08-04 23:53:00,53.0,50.0,30.10,West,279,0.0,0.0,91,0.00,,,0.00,0.000000,,2013-08-05 03:53:00,